Temperature
13 13 12 12 12 12 12 12 12 13 13 13 12 12 12 12 12 12 13 13 13 13 13 13 13 13 13 14 14 14 14 14 14 15 14 14 14 14 14 15 14 14 14
12 12 11 11 11 11 11 12 12 12 12 12 12 12 12 12 12 12 12 12 12 12 12 12 12 12 12 12 13 13 13 13 13 14 14 14 14 14 14 14 15 14 14
12 11 11 11 11 11 11 12 12 12 12 12 12 11 12 12 12 12 12 12 12 12 12 12 12 12 12 12 12 13 13 13 13 13 13 13 13 14 14 14 14 14 14
12 12 11 11 11 11 11 11 12 12 12 11 11 11 11 11 11 11 11 11 11 11 11 11 11 11 11 11 12 12 13 13 13 13 13 13 13 13 13 13 13 14 13
12 12 11 11 11 11 11 11 12 11 11 11 11 11 11 11 11 11 11 11 11 11 11 11 11 11 12 12 12 12 12 13 13 14 13 13 13 12 12 12 13 13 13
12 12 12 11 11 11 11 11 11 11 11 11 11 11 11 12 12 11 11 11 11 11 11 11 11 11 11 12 12 12 12 12 12 13 13 13 12 12 12 12 12 12 12
12 12 12 12 11 11 11 11 11 11 11 11 11 11 11 12 12 11 11 11 11 11 11 11 12 11 11 11 11 11 11 12 12 11 12 12 12 12 12 12 12 12 11
12 12 12 12 12 11 11 11 12 11 11 11 11 11 12 12 11 11 11 11 11 11 10 10 10 11 11 11 11 11 11 11 11 11 11 11 12 12 12 12 12 12 12
12 12 12 12 12 11 11 11 12 12 11 11 11 11 12 11 11 11 11 11 10 10 10 10 10 10 11 11 10 11 11 11 11 11 11 11 11 12 12 12 12 13 12
12 12 12 12 12 12 11 11 11 11 11 11 11 11 11 11 11 11 11 11 10 10 10 10 10 10 10 10 10 10 10 10 10 11 11 11 11 11 11 11 11 12 12
12 11 11 12 12 11 11 11 11 11 11 11 11 11 11 11 11 11 11 11 11 11 11 11 10 10 10 10 9 9 10 10 11 11 11 11 11 11 11 11 10 11 11
11 11 11 11 12 11 11 11 11 11 11 10 10 10 10 10 10 10 10 10 10 10 10 10 9 9 9 9 9 9 9 10 11 11 11 11 10 10 10 10 10 10 10
11 11 11 11 11 11 11 11 11 10 11 10 10 10 10 10 10 10 10 10 10 9 9 9 9 9 9 8 8 9 9 10 10 10 10 10 10 9 10 10 10 10 10
11 11 11 11 11 10 11 11 11 10 11 11 10 10 10 10 10 9 9 9 9 9 9 9 9 9 9 8 9 9 9 8 9 9 9 9 9 9 9 9 10 10 10
11 11 11 11 11 11 11 11 10 11 11 11 10 10 10 10 10 9 9 9 9 9 9 9 10 10 10 9 9 9 8 8 8 8 8 8 9 9 9 9 8 9 9
11 11 11 11 11 11 10 10 10 10 10 10 10 10 10 10 9 9 9 9 9 9 9 10 10 10 10 10 10 9 8 7 7 7 7 7 8 8 8 8 8 8 8
11 11 11 11 11 11 10 10 10 10 10 9 9 9 9 9 9 9 9 9 9 9 9 10 10 10 9 9 9 9 8 7 7 7 7 7 7 7 7 7 7 7 8
11 11 11 11 11 11 11 10 10 10 9 9 9 9 9 9 9 9 9 9 9 9 10 10 10 9 9 9 9 8 8 7 7 7 6 6 6 7 7 7 7 6 7
11 11 10 11 10 11 11 10 10 10 10 9 9 9 9 9 9 9 9 9 10 10 10 10 9 9 9 8 8 8 7 7 6 6 6 6 6 6 6 6 6 6 6
10 10 10 10 10 11 10 10 10 10 9 9 9 9 9 9 9 9 9 9 10 10 10 10 9 9 9 8 8 8 8 7 7 7 6 6 6 6 6 6 6 6 6
11 10 10 10 11 11 11 10 10 10 10 10 10 10 9 9 10 10 10 10 10 10 10 10 9 9 8 8 8 8 7 7 7 6 6 6 5 5 5 5 6 6 6
11 10 9 10 11 11 11 11 10 10 10 11 11 10 10 10 11 11 11 10 10 10 10 9 10 9 9 8 8 8 8 7 7 6 5 5 5 5 5 5 5 5 5
11 11 10 10 11 11 10 11 11 11 11 11 11 11 10 10 10 11 11 11 10 10 10 10 9 9 9 9 8 8 8 7 7 6 5 5 4 4 4 4 4 4 4
12 11 11 11 11 11 11 11 11 11 12 12 12 11 11 10 10 11 11 10 10 10 10 10 10 9 9 8 8 8 7 7 6 6 5 4 4 4 4 4 4 4 4
12 11 11 11 11 11 11 11 11 11 11 12 11 11 11 11 11 11 11 11 10 10 10 10 10 9 9 8 8 8 7 6 6 5 4 4 3 3 3 3 3 3 3
12 12 11 11 11 11 11 11 11 11 11 12 12 12 11 11 11 11 11 11 11 10 10 10 10 9 9 8 8 7 6 6 5 5 4 4 3 3 3 3 3 3 3
Wind_Speed
10 9 9 7 6 3 2 3 4 4 5 7 8 7 6 5 4 3 3 3 3 4 3 4 4 6 5 5 5 5 4 6 8 7 5 6 7 7 5 4 4 5 6
11 11 8 6 6 3 2 1 2 4 4 5 6 6 6 6 4 4 5 5 6 6 5 5 5 5 6 6 6 6 5 5 7 9 8 7 7 8 8 6 5 5 5
8 8 5 1 3 2 1 1 2 3 4 5 5 6 6 6 6 6 7 7 7 7 7 7 6 5 6 6 7 7 7 6 5 6 7 6 7 9 10 7 6 5 5
6 9 8 5 2 1 3 4 4 5 6 7 7 8 8 8 8 9 9 9 9 8 8 7 6 7 7 7 6 7 8 7 7 6 7 8 8 11 11 11 9 5 3
7 12 12 9 7 5 4 5 6 7 8 8 9 10 10 9 9 9 10 10 10 10 9 9 9 8 8 7 7 9 9 8 8 8 9 9 10 11 11 10 11 8 2
7 12 13 11 10 7 6 7 8 8 8 8 10 11 10 10 10 10 8 10 10 10 10 9 9 8 6 6 7 8 10 10 11 10 10 10 11 10 9 9 9 7 4
5 10 12 12 10 8 6 8 8 8 8 10 11 11 11 10 10 10 8 9 10 9 9 8 9 10 9 8 4 4 6 6 6 8 11 11 12 12 11 10 8 6 5
4 8 11 13 12 8 6 7 7 7 7 8 10 11 10 9 9 8 4 8 9 8 8 8 8 10 10 10 8 8 8 8 8 9 9 9 10 11 11 8 5 1 3
4 6 9 13 15 13 10 9 7 6 6 6 8 10 10 8 6 4 2 7 7 7 7 7 7 9 12 15 7 7 7 7 2 1 3 6 6 6 10 11 10 8 5
6 6 7 10 13 14 14 13 10 8 6 6 7 8 9 8 5 2 6 5 6 6 6 6 11 10 12 15 9 9 8 8 9 6 3 4 5 7 9 12 11 10 8
9 9 8 8 10 12 13 12 12 10 8 7 7 7 8 8 7 2 5 2 4 4 4 4 6 9 11 12 10 8 8 9 7 6 6 7 8 8 10 11 10 9 9
10 10 9 9 9 11 12 12 12 11 10 9 8 8 8 8 7 6 6 6 4 4 2 3 6 6 6 8 7 9 12 11 6 7 7 8 9 9 9 10 8 7 7
12 11 10 10 8 9 10 11 11 11 11 11 10 7 7 7 7 7 7 6 5 2 4 6 4 1 5 4 2 7 8 7 7 7 7 7 7 8 8 8 8 6 3
12 11 10 10 9 8 7 9 10 11 12 12 11 10 9 9 9 8 7 6 5 5 5 6 6 3 3 2 2 1 6 7 8 7 8 7 7 8 8 9 9 8 7
12 11 11 11 10 9 8 5 7 8 8 9 9 8 9 9 7 5 1 3 2 2 2 5 5 4 3 4 4 5 6 7 7 8 8 8 8 8 8 8 8 8 8
12 12 11 11 10 10 9 7 7 5 10 9 6 4 5 10 14 10 9 7 4 2 4 4 3 2 2 3 4 5 6 8 7 7 8 8 8 8 8 8 8 9 8
13 12 11 11 10 10 10 10 9 7 7 9 10 9 11 15 14 11 8 5 3 4 5 4 4 3 2 3 4 5 6 6 6 7 7 7 7 7 7 8 8 9 9
14 12 11 10 10 10 10 11 11 12 12 9 9 11 15 15 13 11 9 7 7 6 5 5 4 3 2 1 3 4 4 5 5 6 7 7 7 7 7 8 7 9 9
14 12 12 11 11 11 11 11 11 12 12 12 13 10 11 12 10 9 10 8 6 7 5 5 4 4 3 1 1 1 3 4 5 5 6 6 6 6 7 7 7 6 7
15 13 12 12 12 12 12 12 12 12 12 11 13 13 13 11 10 10 9 8 6 6 6 6 5 4 4 3 2 2 1 0 2 4 5 5 5 5 6 6 7 7 7
15 15 14 14 14 14 13 13 13 13 13 13 14 15 17 14 12 12 11 9 8 7 7 6 6 6 6 5 5 5 4 3 2 3 4 5 5 5 6 6 7 7 7
16 15 16 16 14 14 14 13 14 14 15 15 13 14 16 13 11 11 11 10 10 9 8 7 7 6 6 7 7 6 6 5 4 3 3 4 4 5 6 6 6 7 7
17 17 17 17 15 14 14 15 15 15 15 15 15 15 14 13 12 11 11 11 11 11 9 8 8 7 7 7 7 7 7 6 5 4 4 4 4 5 5 5 6 6 7
19 19 19 18 17 17 17 16 16 16 16 16 15 14 14 15 14 13 12 12 12 12 11 10 10 11 10 8 8 9 9 6 5 5 4 5 5 5 5 5 5 6 7
20 20 19 19 18 18 18 18 17 16 16 15 15 14 13 13 14 14 13 12 13 13 13 12 10 11 12 13 11 8 10 10 5 4 5 5 5 5 5 5 5 6 6
20 21 20 19 19 18 18 18 18 18 17 16 16 15 14 14 14 14 13 13 13 13 13 12 14 15 14 13 13 13 19 16 13 8 6 5 5 5 5 5 5 6 7
Wind_Direction
40 54 46 29 13 15 50 103 124 144 152 145 137 135 136 139 142 157 141 126 102 77 55 41 33 23 10 359 353 339 319 305 293 297 304 323 329 324 311 284 262 243 228
62 71 61 15 346 356 48 84 164 169 164 143 137 133 134 130 130 134 121 97 84 75 65 58 50 50 35 16 352 346 334 319 307 312 319 326 328 329 320 292 258 245 232
101 104 109 55 330 356 78 110 101 109 111 113 117 121 121 120 118 106 92 82 78 75 73 73 62 45 27 18 358 355 347 352 351 334 340 346 344 346 336 319 280 254 235
156 149 159 174 186 95 71 80 92 107 113 112 113 113 113 109 103 95 89 85 85 83 80 75 61 42 22 2 9 14 11 16 34 27 18 11 7 1 0 349 334 301 239
181 169 173 177 174 155 133 126 127 125 119 117 119 116 113 108 98 96 98 92 90 90 83 73 63 51 30 6 14 16 16 17 31 34 31 24 17 9 7 354 346 334 302
185 174 176 175 165 154 146 139 133 125 122 125 121 112 104 94 74 66 84 94 89 87 86 87 88 64 75 63 37 27 20 22 21 17 29 22 16 7 359 1 1 4 2
173 173 172 163 152 146 148 139 131 126 128 130 123 111 101 97 91 76 58 93 90 82 76 67 66 57 32 50 84 151 71 43 359 343 23 12 12 6 349 1 19 27 28
159 161 163 155 149 145 143 132 122 119 127 133 127 117 114 116 109 102 90 101 96 91 83 77 69 54 28 4 37 45 44 41 22 19 12 5 13 356 344 338 344 83 99
180 160 161 162 160 161 161 153 141 132 130 133 124 125 127 134 142 150 216 124 116 103 84 61 55 55 16 348 16 28 26 21 119 176 299 293 286 320 350 360 1 358 34
201 178 167 163 166 167 161 159 160 156 143 134 124 131 135 142 154 202 274 159 137 137 124 110 71 42 16 360 11 20 15 0 347 348 332 334 356 17 19 16 10 6 10
196 180 172 159 157 158 158 163 168 168 155 143 132 128 126 130 148 176 308 167 143 144 128 111 75 39 21 5 359 21 349 314 331 350 4 9 12 14 17 23 20 18 15
189 183 174 166 165 158 163 168 171 167 161 159 153 145 133 126 114 114 78 59 35 120 104 79 76 46 30 17 19 350 317 318 6 12 14 15 16 14 15 19 26 37 37
191 187 180 172 167 163 168 169 170 173 175 169 160 154 149 134 119 110 100 82 34 87 87 66 53 278 230 155 68 313 331 13 16 15 14 11 11 12 1 3 7 360 5
198 189 182 175 171 169 177 179 179 181 182 175 168 167 162 159 156 157 156 157 170 175 154 152 185 229 186 124 183 13 45 32 6 7 3 359 355 356 359 359 354 353 357
199 191 188 186 182 179 184 169 192 190 185 177 169 170 172 170 132 73 181 159 145 85 203 192 185 165 136 89 67 42 25 20 12 9 2 355 352 351 352 356 353 348 356
203 199 198 196 185 187 175 159 66 83 115 121 131 156 122 118 124 114 98 89 72 337 260 177 153 128 77 51 32 36 39 27 13 12 9 1 355 354 357 2 2 358 355
210 204 203 200 190 194 189 182 165 123 119 145 155 142 132 139 144 150 151 153 189 261 217 155 144 124 93 67 44 36 37 39 12 12 12 5 358 357 0 357 3 357 351
208 202 205 202 199 196 191 186 177 167 162 162 160 139 138 149 160 172 175 185 188 215 191 156 156 150 125 59 44 37 34 33 20 16 19 10 5 4 4 357 11 8 350
205 201 200 203 200 196 192 188 184 179 170 162 162 154 148 155 167 182 194 223 194 175 170 171 176 175 168 164 79 31 25 33 20 2 23 11 4 5 7 358 1 6 336
203 194 192 200 199 194 190 187 180 177 172 173 178 175 169 178 184 183 201 212 200 177 174 182 185 192 200 215 211 241 256 360 346 355 15 360 0 358 358 351 351 347 350
195 186 188 203 200 193 190 187 181 181 184 188 188 174 172 190 194 188 189 193 202 195 189 193 190 199 213 224 234 228 242 271 288 333 347 348 349 346 341 342 340 339 344
191 184 190 200 197 194 191 189 187 190 192 191 183 166 170 202 204 200 201 199 204 209 205 208 216 212 219 222 228 236 242 243 249 266 305 319 320 326 331 334 337 336 336
189 186 187 196 195 184 187 190 189 190 190 189 188 182 185 208 219 218 217 215 213 213 214 213 226 231 225 230 235 239 242 235 233 244 280 294 300 310 314 326 328 328 338
190 189 188 192 192 188 191 191 189 191 193 194 197 199 195 201 216 221 222 221 217 217 218 220 227 232 232 235 235 231 231 221 215 220 242 282 286 289 297 311 318 333 331
191 191 192 192 193 193 194 196 196 197 200 203 204 208 212 209 211 214 214 215 216 219 222 225 228 232 232 230 228 221 145 139 179 228 209 242 258 269 282 294 307 317 322
193 192 192 193 195 198 198 200 202 202 205 207 208 210 213 214 214 214 212 213 216 219 225 228 230 230 226 222 214 170 153 163 175 196 231 226 230 245 262 278 296 303 313
Height
1456 1458 1459 1460 1461 1462 1463 1465 1466 1467 1469 1470 1471 1473 1474 1475 1476 1477 1479 1478 1479 1479 1479 1480 1480 1480 1480 1481 1479 1478 1476 1474 1472 1469 1467 1464 1461 1460 1458 1456 1455 1454 1453
1459 1459 1461 1463 1465 1466 1466 1467 1468 1469 1470 1471 1472 1473 1474 1475 1476 1478 1478 1478 1478 1478 1479 1480 1480 1481 1480 1480 1480 1479 1476 1472 1470 1467 1465 1463 1460 1458 1456 1453 1451 1450 1449
1460 1462 1464 1466 1468 1469 1469 1469 1470 1470 1471 1472 1473 1473 1474 1475 1477 1478 1478 1478 1478 1479 1480 1481 1482 1482 1482 1482 1481 1479 1475 1472 1469 1466 1464 1461 1459 1457 1453 1451 1448 1446 1445
1462 1462 1464 1466 1467 1469 1470 1471 1471 1472 1472 1473 1474 1474 1475 1477 1478 1479 1479 1479 1480 1481 1481 1483 1484 1484 1483 1483 1482 1478 1475 1472 1470 1467 1465 1462 1460 1456 1452 1449 1446 1444 1442
1463 1462 1464 1465 1467 1469 1470 1471 1472 1474 1474 1475 1476 1476 1477 1479 1481 1482 1482 1483 1483 1484 1484 1485 1484 1484 1484 1483 1481 1479 1476 1474 1472 1469 1468 1465 1462 1458 1453 1449 1445 1441 1440
1462 1462 1463 1465 1468 1470 1471 1473 1474 1475 1477 1478 1479 1479 1480 1480 1482 1483 1485 1486 1486 1487 1488 1488 1487 1487 1486 1484 1482 1480 1478 1476 1474 1472 1470 1468 1464 1461 1456 1451 1447 1442 1439
1461 1461 1462 1464 1467 1470 1472 1474 1476 1477 1478 1480 1481 1481 1481 1482 1484 1486 1488 1489 1490 1490 1491 1491 1490 1489 1488 1488 1486 1483 1481 1478 1476 1474 1473 1471 1468 1464 1458 1454 1450 1445 1442
1460 1460 1461 1463 1466 1469 1471 1474 1476 1478 1480 1481 1482 1483 1484 1485 1487 1489 1490 1491 1492 1492 1493 1492 1491 1490 1489 1489 1488 1486 1483 1480 1477 1476 1475 1473 1469 1464 1460 1456 1453 1449 1446
1459 1459 1460 1462 1464 1467 1469 1472 1475 1478 1480 1482 1483 1484 1485 1487 1488 1490 1491 1493 1494 1494 1494 1493 1493 1491 1490 1489 1488 1486 1484 1482 1480 1477 1475 1473 1470 1466 1461 1458 1455 1452 1450
1457 1458 1459 1460 1462 1464 1467 1470 1474 1477 1479 1481 1483 1484 1486 1487 1489 1490 1491 1494 1494 1495 1494 1493 1492 1491 1490 1488 1487 1485 1483 1481 1480 1479 1477 1474 1471 1468 1464 1460 1458 1455 1452
1454 1455 1457 1458 1460 1462 1465 1468 1471 1474 1477 1480 1482 1484 1486 1487 1488 1490 1491 1493 1494 1494 1494 1494 1492 1491 1489 1488 1486 1485 1483 1481 1481 1479 1477 1474 1471 1469 1466 1463 1460 1458 1455
1451 1453 1455 1456 1459 1460 1463 1465 1468 1471 1474 1477 1481 1483 1485 1487 1488 1489 1490 1491 1492 1493 1493 1493 1491 1489 1488 1488 1487 1486 1484 1483 1481 1479 1477 1475 1472 1470 1467 1464 1461 1459 1457
1449 1450 1452 1454 1456 1458 1460 1463 1466 1468 1472 1476 1479 1481 1484 1485 1486 1487 1488 1489 1490 1491 1491 1490 1490 1489 1488 1489 1488 1486 1485 1484 1482 1480 1478 1476 1474 1471 1469 1466 1463 1461 1459
1446 1447 1449 1451 1454 1456 1459 1461 1464 1467 1470 1473 1476 1479 1481 1483 1485 1486 1487 1488 1489 1490 1490 1489 1489 1489 1489 1489 1488 1487 1486 1484 1482 1480 1478 1476 1474 1472 1470 1467 1465 1462 1460
1443 1445 1447 1449 1452 1454 1457 1459 1461 1464 1467 1470 1473 1476 1479 1482 1484 1485 1487 1489 1489 1489 1489 1490 1490 1490 1490 1489 1488 1487 1486 1484 1482 1480 1478 1476 1474 1472 1470 1468 1465 1463 1461
1439 1441 1444 1447 1449 1451 1454 1456 1458 1461 1464 1468 1471 1474 1477 1480 1481 1483 1484 1485 1486 1486 1488 1489 1489 1490 1489 1489 1488 1487 1486 1484 1482 1480 1478 1476 1474 1472 1470 1468 1466 1464 1462
1435 1438 1440 1443 1445 1448 1450 1453 1455 1458 1461 1465 1469 1472 1475 1478 1480 1481 1483 1484 1485 1485 1487 1488 1489 1489 1489 1489 1488 1487 1486 1485 1483 1481 1479 1477 1475 1473 1471 1469 1467 1465 1463
1430 1433 1436 1439 1442 1444 1447 1449 1452 1455 1459 1462 1466 1469 1473 1475 1478 1480 1481 1482 1484 1484 1486 1487 1488 1488 1489 1488 1488 1487 1486 1485 1484 1482 1480 1478 1476 1474 1472 1470 1468 1467 1464
1425 1428 1431 1435 1438 1440 1443 1446 1449 1453 1456 1460 1463 1466 1469 1472 1475 1477 1479 1481 1483 1484 1485 1486 1487 1487 1488 1488 1487 1487 1486 1485 1484 1483 1481 1479 1477 1475 1473 1471 1469 1467 1465
1419 1423 1426 1430 1433 1436 1439 1442 1445 1449 1452 1456 1460 1463 1466 1470 1473 1475 1477 1479 1480 1482 1483 1484 1485 1485 1486 1486 1486 1486 1485 1485 1484 1482 1481 1479 1477 1475 1474 1472 1470 1468 1466
1413 1416 1420 1424 1428 1431 1434 1438 1441 1445 1449 1453 1457 1460 1463 1467 1470 1472 1474 1476 1478 1479 1480 1481 1482 1483 1483 1484 1484 1484 1484 1483 1483 1482 1481 1479 1477 1475 1474 1472 1470 1468 1467
1406 1410 1414 1419 1422 1426 1429 1433 1437 1441 1445 1449 1453 1456 1460 1464 1466 1468 1471 1472 1474 1476 1477 1478 1479 1480 1480 1481 1481 1481 1480 1480 1480 1480 1479 1478 1476 1475 1473 1471 1469 1468 1466
1399 1403 1408 1413 1417 1421 1425 1428 1432 1436 1440 1444 1448 1452 1455 1459 1462 1464 1466 1468 1470 1472 1473 1474 1475 1476 1477 1477 1477 1477 1477 1477 1477 1477 1477 1476 1475 1473 1472 1470 1468 1467 1465
1391 1396 1401 1407 1411 1415 1419 1423 1427 1431 1435 1439 1443 1447 1450 1453 1456 1458 1460 1462 1464 1466 1468 1469 1470 1471 1472 1472 1472 1472 1472 1473 1473 1473 1473 1473 1472 1471 1470 1469 1467 1466 1465
1385 1390 1395 1400 1405 1410 1414 1418 1422 1426 1430 1434 1438 1441 1444 1447 1449 1452 1454 1456 1458 1460 1462 1464 1465 1466 1466 1467 1467 1468 1467 1468 1469 1470 1470 1470 1469 1469 1468 1467 1466 1465 1463
1379 1383 1388 1393 1399 1404 1408 1413 1416 1420 1424 1427 1431 1435 1438 1440 1443 1446 1448 1450 1452 1454 1456 1458 1459 1459 1460 1461 1462 1462 1462 1463 1465 1466 1467 1467 1466 1466 1466 1465 1464 1463 1462